Humidity-temperature Sensor

Selected Measurement Type: Relative Humidity

 
Relative Humidity [%]     6 entries per hour
Showing data from 4/8/2023 (00:00:00 Z) to 4/5/2023 (00:01:00 Z)
Previous Next [ Day | 3-Days | 7-Days ]
First Last
Prev [ Day | 3-Days | 7-Days ] Next
First Last

Start Time:     :
End Time:     :     
Time (in GMT) :00 :50 :40 :30 :20 :10
Previous Next [ Day | 3-Days | 7-Days ]
First Last
Prev [ Day | 3-Days | 7-Days ] Next
First Last


123 => good data
MM => data is determined as missing
-- => data not received/configured
Back to Top Back to Top
4/8/2023 00:00 to 23:10 82.18 84.79 82.79 84.13 83.08 82.48
4/7/2023 23:00 to 22:10 82.16 83.15 81.10 81.39 82.18 82.77
4/7/2023 22:00 to 21:10 82.10 80.49 82.52 82.48 81.02 82.50
4/7/2023 21:00 to 20:10 81.41 82.12 81.35 81.81 80.18 80.06
4/7/2023 20:00 to 19:10 79.30 77.84 78.51 76.67 81.73 82.39
4/7/2023 19:00 to 18:10 82.33 81.79 83.00 83.19 82.50 82.85
4/7/2023 18:00 to 17:10 83.77 84.90 83.35 83.79 84.77 83.44
4/7/2023 17:00 to 16:10 83.65 82.12 82.06 83.96 80.70 80.12
4/7/2023 16:00 to 15:10 81.43 81.89 80.64 81.58 80.77 80.16
4/7/2023 15:00 to 14:10 80.58 80.60 80.01 81.37 80.01 78.26
4/7/2023 14:00 to 13:10 80.62 81.62 81.39 80.89 81.64 82.04
4/7/2023 13:00 to 12:10 82.25 83.58 84.65 84.94 85.52 84.82
4/7/2023 12:00 to 11:10 83.63 83.83 83.96 83.73 82.75 83.94
4/7/2023 11:00 to 10:10 82.23 83.37 83.33 83.12 83.67 82.77
4/7/2023 10:00 to 9:10 81.54 82.33 81.45 82.54 82.71 83.81
4/7/2023 09:00 to 8:10 82.85 82.77 83.35 81.83 81.81 81.33
4/7/2023 08:00 to 7:10 81.41 82.31 83.00 83.69 81.87 83.37
4/7/2023 07:00 to 6:10 82.81 83.98 83.15 83.08 82.79 82.06
4/7/2023 06:00 to 5:10 82.56 81.54 81.66 86.28 83.63 83.92
4/7/2023 05:00 to 4:10 83.56 82.71 83.27 83.54 83.19 84.15
4/7/2023 04:00 to 3:10 83.17 83.46 86.44 86.15 87.09 86.69
4/7/2023 03:00 to 2:10 86.21 85.42 84.86 83.98 83.40 84.61
4/7/2023 02:00 to 1:10 85.25 85.69 85.59 84.52 81.79 83.19
4/7/2023 01:00 to 0:10 82.77 82.62 84.79 87.49 85.19 87.38
4/7/2023 00:00 to 23:10 88.36 87.47 83.71 85.46 84.82 84.77
4/6/2023 23:00 to 22:10 86.63 87.26 87.57 87.99 87.09 86.38
4/6/2023 22:00 to 21:10 85.67 87.65 87.70 87.61 88.99 87.51
4/6/2023 21:00 to 20:10 86.51 89.24 87.38 85.94 86.34 86.32
4/6/2023 20:00 to 19:10 79.45 88.32 83.77 84.27 85.07 85.61
4/6/2023 19:00 to 18:10 85.86 83.98 83.75 82.48 80.22 78.59
4/6/2023 18:00 to 17:10 79.24 79.43 80.43 77.47 74.82 72.90
4/6/2023 17:00 to 16:10 74.73 72.31 68.89 75.67 77.09 74.88
4/6/2023 16:00 to 15:10 70.68 75.32 68.59 73.00 79.64 73.98
4/6/2023 15:00 to 14:10 79.22 79.05 76.53 80.35 80.10 80.58
4/6/2023 14:00 to 13:10 82.31 81.66 79.60 75.84 78.39 83.63
4/6/2023 13:00 to 12:10 84.04 84.52 81.25 82.62 79.10 79.74
4/6/2023 12:00 to 11:10 81.81 73.81 73.73 72.79 71.31 74.59
4/6/2023 11:00 to 10:10 74.02 74.86 76.38 81.48 87.55 90.79
4/6/2023 10:00 to 9:10 87.24 88.97 84.65 88.76 91.93 79.60
4/6/2023 09:00 to 8:10 81.89 79.95 72.73 78.93 83.33 83.85
4/6/2023 08:00 to 7:10 78.16 89.99 91.12 92.21 88.16 79.35
4/6/2023 07:00 to 6:10 85.27 87.32 85.88 88.95 90.56 99.91
4/6/2023 06:00 to 5:10 100.49 101.10 100.62 96.11 93.06 87.22
4/6/2023 05:00 to 4:10 86.65 86.44 87.86 87.11 85.98 85.84
4/6/2023 04:00 to 3:10 85.42 86.46 86.55 85.42 84.90 84.63
4/6/2023 03:00 to 2:10 85.65 84.54 85.13 85.52 85.48 85.80
4/6/2023 02:00 to 1:10 86.13 85.69 85.80 84.17 84.77 83.42
4/6/2023 01:00 to 0:10 87.11 86.26 85.52 84.63 83.60 83.96
4/6/2023 00:00 to 23:10 85.61 84.84 84.96 84.46 84.84 84.59
4/5/2023 23:00 to 22:10 79.64 84.88 83.83 82.75 84.82 83.94
4/5/2023 22:00 to 21:10 83.00 84.04 83.40 83.25 83.23 83.44
4/5/2023 21:00 to 20:10 83.12 83.71 83.71 83.44 83.90 83.48
4/5/2023 20:00 to 19:10 85.23 84.17 83.90 85.09 84.48 85.84
4/5/2023 19:00 to 18:10 84.52 83.08 87.68 87.40 87.53 87.45
4/5/2023 18:00 to 17:10 86.17 85.90 85.25 86.59 87.78 87.88
4/5/2023 17:00 to 16:10 85.15 83.08 83.10 83.15 82.52 82.92
4/5/2023 16:00 to 15:10 82.77 83.08 82.87 81.98 81.33 81.93
4/5/2023 15:00 to 14:10 81.89 82.89 82.71 83.56 83.94 85.42
4/5/2023 14:00 to 13:10 87.78 88.09 88.78 91.33 88.34 87.51
4/5/2023 13:00 to 12:10 85.27 86.15 87.34 87.13 88.38 87.72
4/5/2023 12:00 to 11:10 83.56 82.92 82.87 83.00 82.94 83.19
4/5/2023 11:00 to 10:10 80.99 81.83 80.24 79.43 79.72 81.10
4/5/2023 10:00 to 9:10 82.02 81.75 83.31 83.23 83.73 83.27
4/5/2023 09:00 to 8:10 82.64 82.06 82.16 84.11 83.81 84.63
4/5/2023 08:00 to 7:10 83.79 85.67 83.94 83.58 82.83 83.00
4/5/2023 07:00 to 6:10 82.85 82.58 82.96 82.56 81.83 82.52
4/5/2023 06:00 to 5:10 81.37 81.79 79.37 79.95 80.93 79.83
4/5/2023 05:00 to 4:10 80.81 80.49 81.27 80.68 80.47 82.33
4/5/2023 04:00 to 3:10 82.21 83.88 81.66 81.10 81.64 81.56
4/5/2023 03:00 to 2:10 81.81 80.89 81.27 80.83 80.41 81.83
4/5/2023 02:00 to 1:10 82.08 82.33 81.77 78.64 78.89 77.68
4/5/2023 01:00 to 0:10 77.01 78.57 80.16 80.85 80.89 81.58